DB5ZQ Weather Reports


time (UTC)temp
C
wind
direction
speed
KPH
gust
KPH
rain 1hr
cm
rain 24hr
cm
rain mn
cm
humidity
%
barometer
mb
20260507230609 12 174 0.0 1.6 0.00 0.03 0.00 76 1013.7
20260507230109 13 174 0.0 1.6 0.00 0.03 0.00 76 1013.7
20260507225609 13 351 0.0 4.8 0.00 0.03 0.00 76 1013.7
20260507225109 13 239 0.0 0.0 0.00 0.03 0.00 76 1013.7
20260507224608 13 239 0.0 0.0 0.00 0.03 0.00 76 1013.7
20260507224108 13 239 0.0 1.6 0.00 0.03 0.00 76 1013.7
20260507223608 13 53 0.0 3.2 0.00 0.03 0.00 75 1013.7
20260507223108 13 241 0.0 3.2 0.00 0.03 0.00 75 1013.7
20260507222607 13 196 0.0 3.2 0.00 0.03 0.00 75 1013.7
20260507222107 13 205 1.6 1.6 0.00 0.03 0.00 75 1013.7
20260507221607 13 135 0.0 1.6 0.00 0.03 0.00 75 1013.6
20260507221106 13 90 0.0 1.6 0.00 0.03 0.00 75 1013.6
20260507220606 13 90 0.0 0.0 0.00 0.03 0.00 75 1013.6
20260507220106 13 213 0.0 0.0 0.00 0.03 0.00 75 1013.5
20260507215605 13 213 0.0 0.0 0.00 0.03 0.00 75 1013.5
20260507215105 13 213 0.0 3.2 0.00 0.03 0.00 75 1013.5
20260507214605 13 317 0.0 0.0 0.00 0.03 0.00 75 1013.5
20260507214105 13 317 0.0 0.0 0.00 0.03 0.00 75 1013.4
20260507213604 13 220 0.0 0.0 0.00 0.03 0.00 75 1013.3
20260507213104 13 220 0.0 0.0 0.00 0.03 0.03 75 1013.3
20260507212604 13 220 0.0 3.2 0.00 0.03 0.03 75 1013.3
20260507212104 14 330 0.0 3.2 0.00 0.03 0.03 75 1013.2
20260507211603 14 36 0.0 0.0 0.00 0.03 0.03 75 1013.2
20260507211103 13 36 0.0 0.0 0.00 0.03 0.03 75 1013.1
20260507210603 13 36 0.0 1.6 0.00 0.03 0.03 75 1013.1
20260507205602 14 278 1.6 1.6 0.00 0.03 0.03 75 1013.2
20260507205102 14 184 0.0 1.6 0.00 0.03 0.03 74 1013.2
20260507204602 14 234 0.0 0.0 0.00 0.03 0.03 74 1013.1
20260507204101 14 234 0.0 0.0 0.00 0.03 0.03 74 1013.2
20260507203601 14 234 0.0 1.6 0.00 0.03 0.03 74 1013.1
20260507203101 14 184 0.0 1.6 0.00 0.03 0.03 74 1013.1
20260507202600 14 243 0.0 0.0 0.00 0.03 0.03 74 1013.0
20260507202100 14 243 0.0 0.0 0.00 0.03 0.03 74 1013.0
20260507201600 14 243 0.0 0.0 0.00 0.03 0.03 74 1012.9
20260507201100 15 243 0.0 0.0 0.00 0.03 0.03 74 1012.8
20260507200559 14 243 0.0 3.2 0.00 0.03 0.03 74 1012.8
20260507200059 14 132 0.0 0.0 0.00 0.03 0.03 73 1012.7
20260507195559 14 132 0.0 0.0 0.00 0.03 0.03 73 1012.6
20260507195058 14 132 0.0 0.0 0.00 0.03 0.03 73 1012.7
20260507194558 15 132 0.0 0.0 0.00 0.03 0.03 73 1012.7
20260507194058 14 132 0.0 0.0 0.00 0.03 0.03 73 1012.6
20260507193558 14 132 0.0 0.0 0.00 0.03 0.03 74 1012.5
20260507193057 14 132 0.0 0.0 0.00 0.03 0.03 74 1012.5
20260507192557 15 132 0.0 0.0 0.00 0.03 0.03 74 1012.5
20260507192057 15 132 0.0 0.0 0.00 0.03 0.03 74 1012.4
20260507191556 15 132 0.0 0.0 0.00 0.03 0.03 74 1012.4
20260507191056 15 132 0.0 0.0 0.00 0.03 0.03 74 1012.3
20260507190556 15 132 0.0 0.0 0.00 0.03 0.03 74 1012.3
20260507190056 15 158 0.0 0.0 0.00 0.03 0.03 74 1012.2
20260507185555 15 158 0.0 0.0 0.00 0.03 0.03 74 1012.2
20260507185055 15 158 0.0 0.0 0.00 0.03 0.03 74 1012.2
20260507184555 15 158 0.0 1.6 0.00 0.03 0.03 74 1012.2
20260507184054 15 46 0.0 0.0 0.00 0.03 0.03 73 1012.1
20260507183554 15 46 0.0 0.0 0.00 0.03 0.03 73 1012.1
20260507183054 15 46 0.0 0.0 0.00 0.03 0.03 73 1012.1
20260507182554 15 46 0.0 1.6 0.00 0.03 0.03 72 1012.0
20260507182053 15 161 0.0 0.0 0.00 0.03 0.03 72 1012.0
20260507181553 15 161 0.0 0.0 0.00 0.03 0.03 72 1012.0
20260507181053 15 161 0.0 0.0 0.00 0.03 0.03 71 1011.9
20260507180552 15 127 0.0 1.6 0.00 0.03 0.03 71 1011.8
20260507180052 15 216 0.0 0.0 0.00 0.03 0.03 71 1011.8
20260507175552 15 216 0.0 0.0 0.00 0.03 0.03 71 1011.8
20260507175052 15 216 0.0 1.6 0.00 0.03 0.03 71 1011.9
20260507174551 15 293 0.0 1.6 0.00 0.03 0.03 71 1011.8
20260507174051 15 99 0.0 0.0 0.00 0.03 0.03 71 1011.9
20260507173551 15 99 0.0 0.0 0.00 0.03 0.03 71 1011.8
20260507173051 15 99 0.0 0.0 0.00 0.03 0.03 71 1011.7
20260507172550 15 99 0.0 1.6 0.00 0.03 0.03 71 1011.7
20260507172050 15 154 0.0 1.6 0.00 0.03 0.03 70 1011.7
20260507171550 15 216 0.0 3.2 0.00 0.03 0.03 70 1011.7
20260507171049 15 247 0.0 0.0 0.00 0.03 0.03 69 1011.7
20260507170549 15 247 0.0 0.0 0.00 0.03 0.03 69 1011.6
20260507170049 15 247 0.0 1.6 0.00 0.03 0.03 69 1011.6
20260507165549 15 315 0.0 0.0 0.00 0.03 0.03 68 1011.4
20260507165049 15 315 0.0 0.0 0.00 0.03 0.03 68 1011.5
20260507164548 16 315 0.0 0.0 0.00 0.03 0.03 68 1011.5
20260507164048 16 315 0.0 1.6 0.00 0.03 0.03 67 1011.4
20260507163547 16 33 0.0 0.0 0.00 0.03 0.03 67 1011.4
20260507163047 16 33 0.0 6.4 0.00 0.03 0.03 66 1011.4
20260507162547 16 50 0.0 3.2 0.00 0.03 0.03 64 1011.4
20260507162047 16 28 0.0 3.2 0.00 0.03 0.03 63 1011.3
20260507161546 16 19 1.6 3.2 0.00 0.03 0.03 62 1011.3
20260507161046 16 19 0.0 4.8 0.00 0.03 0.03 62 1011.3
20260507160546 16 33 1.6 3.2 0.00 0.03 0.03 62 1011.3
20260507160045 16 22 0.0 3.2 0.00 0.03 0.03 62 1011.3
20260507155545 16 30 0.0 1.6 0.00 0.03 0.03 63 1011.2
20260507155045 16 39 0.0 4.8 0.00 0.03 0.03 62 1011.2
20260507154545 16 358 0.0 4.8 0.00 0.03 0.03 62 1011.2
20260507154044 16 23 3.2 4.8 0.00 0.15 0.03 62 1011.2
20260507153544 16 5 0.0 6.4 0.00 0.15 0.03 62 1011.1
20260507153044 16 348 0.0 6.4 0.00 0.15 0.03 63 1011.2
20260507152543 16 330 0.0 4.8 0.00 0.15 0.03 62 1011.1
20260507152043 16 26 0.0 3.2 0.00 0.15 0.03 62 1011.1
20260507151543 16 75 1.6 6.4 0.00 0.15 0.03 62 1011.1
20260507151043 16 116 1.6 4.8 0.00 0.15 0.03 61 1011.1
20260507150542 16 158 1.6 6.4 0.00 0.15 0.03 61 1011.1
20260507150043 16 163 3.2 6.4 0.00 0.15 0.03 60 1011.1
20260507145542 16 36 0.0 4.8 0.00 0.15 0.03 60 1011.1
20260507145041 16 2 1.6 4.8 0.00 0.15 0.03 60 1011.1
20260507144541 16 109 0.0 4.8 0.00 0.15 0.03 60 1011.1
20260507144041 16 150 0.0 4.8 0.00 0.15 0.03 60 1011.0
20260507143541 16 108 1.6 4.8 0.00 0.15 0.03 60 1011.0
20260507143040 16 9 0.0 4.8 0.00 0.15 0.03 60 1011.0
20260507142540 16 106 0.0 3.2 0.00 0.15 0.03 61 1011.0
20260507142040 16 104 0.0 6.4 0.00 0.15 0.03 61 1011.1
20260507141539 16 28 0.0 3.2 0.00 0.15 0.03 63 1011.1
20260507141039 15 106 0.0 3.2 0.00 0.15 0.03 64 1011.1
20260507140539 15 33 0.0 3.2 0.00 0.15 0.03 64 1011.1
20260507140039 15 171 1.6 6.4 0.00 0.15 0.03 63 1011.2
20260507135538 15 129 3.2 3.2 0.00 0.15 0.03 63 1011.2
20260507135038 15 130 0.0 0.0 0.00 0.15 0.03 63 1011.2
20260507134538 15 111 0.0 3.2 0.00 0.15 0.03 63 1011.1
20260507134037 16 140 3.2 4.8 0.00 0.15 0.03 62 1011.2
20260507133537 16 137 3.2 4.8 0.00 0.15 0.03 62 1011.1
20260507133037 16 45 0.0 6.4 0.00 0.15 0.03 62 1011.1
20260507132537 16 163 4.8 6.4 0.00 0.15 0.03 62 1011.1
20260507132036 16 106 1.6 4.8 0.00 0.15 0.03 62 1011.1
20260507131536 16 85 1.6 4.8 0.00 0.15 0.03 62 1011.1
20260507131036 16 178 0.0 0.0 0.00 0.15 0.03 63 1011.0
20260507130536 16 178 0.0 3.2 0.00 0.15 0.03 64 1011.0
20260507130035 16 36 1.6 6.4 0.00 0.15 0.03 63 1010.9
20260507125535 16 115 0.0 3.2 0.00 0.15 0.03 63 1010.9
20260507125035 16 21 1.6 6.4 0.00 0.15 0.03 63 1010.8
20260507124534 16 36 0.0 4.8 0.00 0.15 0.03 63 1010.8
20260507124034 16 208 0.0 6.4 0.00 0.15 0.03 63 1010.9
20260507123534 16 106 0.0 3.2 0.00 0.15 0.03 63 1010.9
20260507123034 16 14 0.0 3.2 0.00 0.15 0.03 62 1010.8
20260507122533 16 5 3.2 8.0 0.00 0.15 0.03 62 1010.8
20260507122033 16 127 4.8 8.0 0.00 0.15 0.03 62 1010.7
20260507121533 16 26 0.0 4.8 0.00 0.15 0.03 63 1010.7
20260507121032 16 125 3.2 11.3 0.00 0.15 0.03 63 1010.6
20260507120532 16 30 0.0 0.0 0.00 0.15 0.03 64 1010.6
20260507120032 15 112 0.0 6.4 0.00 0.15 0.03 64 1010.6
20260507115532 15 39 1.6 6.4 0.00 0.15 0.03 65 1010.7
20260507115031 15 164 6.4 6.4 0.00 0.15 0.03 66 1010.7
20260507114531 15 101 0.0 4.8 0.00 0.15 0.03 67 1010.7
20260507114031 15 91 1.6 4.8 0.00 0.15 0.03 67 1010.7
20260507113530 15 119 1.6 8.0 0.00 0.15 0.03 68 1010.6
20260507113030 15 95 3.2 8.0 0.00 0.15 0.03 68 1010.6
20260507112530 15 108 0.0 6.4 0.00 0.15 0.03 68 1010.6
20260507112030 15 351 0.0 3.2 0.00 0.15 0.03 68 1010.6
20260507111529 15 348 1.6 8.0 0.00 0.15 0.03 67 1010.6
20260507111029 15 46 1.6 6.4 0.00 0.15 0.03 68 1010.6
20260507110529 15 53 0.0 6.4 0.00 0.15 0.03 68 1010.6
20260507110028 15 147 1.6 6.4 0.00 0.15 0.03 68 1010.6
20260507105528 15 67 0.0 11.3 0.00 0.15 0.03 68 1010.6
20260507105028 15 82 1.6 9.7 0.00 0.15 0.03 67 1010.5
20260507104528 15 264 0.0 8.0 0.00 0.15 0.03 68 1010.6
20260507104027 15 53 0.0 4.8 0.00 0.15 0.03 69 1010.5
20260507103527 15 108 0.0 0.0 0.00 0.15 0.03 69 1010.6
20260507103027 14 108 0.0 0.0 0.00 0.15 0.03 70 1010.6
20260507102526 14 345 0.0 4.8 0.00 0.15 0.03 70 1010.6
20260507102026 14 174 1.6 4.8 0.00 0.15 0.03 70 1010.6
20260507101526 14 85 0.0 6.4 0.00 0.15 0.03 71 1010.5
20260507101026 14 16 1.6 4.8 0.00 0.15 0.03 71 1010.5
20260507100525 14 68 0.0 4.8 0.00 0.15 0.03 71 1010.5
20260507100025 14 42 0.0 4.8 0.00 0.15 0.03 71 1010.5
20260507095525 13 345 3.2 3.2 0.00 0.15 0.03 71 1010.4
20260507095024 14 143 1.6 3.2 0.00 0.15 0.03 71 1010.4
20260507094524 13 92 0.0 4.8 0.00 0.15 0.03 71 1010.4
20260507094024 13 46 1.6 4.8 0.00 0.15 0.03 71 1010.3
20260507093524 14 8 0.0 8.0 0.00 0.15 0.03 71 1010.2
20260507093023 13 99 0.0 4.8 0.00 0.15 0.03 71 1010.2
20260507092523 13 284 0.0 6.4 0.00 0.15 0.03 71 1010.1
20260507092023 13 127 1.6 9.7 0.00 0.15 0.03 71 1010.1
20260507091522 13 36 1.6 6.4 0.00 0.15 0.03 71 1010.0
20260507091022 13 75 3.2 8.0 0.00 0.15 0.03 71 1010.0
20260507090522 13 153 4.8 9.7 0.00 0.15 0.03 71 1010.0
20260507090022 13 175 4.8 6.4 0.00 0.15 0.03 71 1009.9
20260507085521 14 60 1.6 4.8 0.00 0.15 0.03 71 1009.9
20260507085021 13 220 0.0 9.7 0.00 0.15 0.03 70 1009.9
20260507084521 14 7 0.0 11.3 0.00 0.15 0.03 70 1009.8
20260507084020 13 331 3.2 4.8 0.00 0.15 0.03 70 1009.9
20260507083520 13 130 0.0 6.4 0.00 0.15 0.03 70 1009.8
20260507083020 13 84 0.0 4.8 0.00 0.15 0.03 71 1009.8
20260507082520 13 358 0.0 11.3 0.00 0.15 0.03 71 1009.8
20260507082019 13 87 0.0 9.7 0.00 0.15 0.03 71 1009.7
20260507081519 13 161 3.2 6.4 0.00 0.15 0.03 71 1009.8
20260507081019 13 337 3.2 11.3 0.00 0.15 0.03 71 1009.7
20260507080518 13 143 0.0 11.3 0.00 0.15 0.03 71 1009.6
20260507080018 13 116 1.6 11.3 0.00 0.15 0.03 71 1009.6
20260507075518 13 175 3.2 9.7 0.00 0.15 0.03 71 1009.5
20260507075018 13 189 1.6 12.9 0.00 0.15 0.03 71 1009.4
20260507074517 13 189 4.8 11.3 0.00 0.15 0.03 72 1009.3
20260507074017 13 85 0.0 8.0 0.00 0.15 0.03 72 1009.3
20260507073517 13 23 0.0 8.0 0.00 0.15 0.03 73 1009.3
20260507073017 13 167 4.8 6.4 0.00 0.15 0.03 73 1009.2
20260507072516 13 312 0.0 8.0 0.00 0.15 0.03 73 1009.1
20260507072016 13 87 0.0 8.0 0.00 0.15 0.03 73 1009.0
20260507071516 13 30 0.0 6.4 0.00 0.15 0.03 73 1009.0
20260507071015 13 70 0.0 8.0 0.00 0.15 0.03 73 1009.0
20260507070515 13 172 8.0 8.0 0.00 0.15 0.03 73 1009.1
20260507070015 13 106 1.6 6.4 0.00 0.15 0.03 72 1008.9
20260507065515 13 129 0.0 8.0 0.00 0.15 0.03 72 1008.9
20260507065014 13 133 4.8 4.8 0.00 0.15 0.03 72 1008.9
20260507064514 13 59 0.0 9.7 0.00 0.15 0.03 72 1008.9
20260507064014 13 84 0.0 1.6 0.00 0.15 0.03 73 1008.8
20260507063513 13 53 0.0 4.8 0.00 0.15 0.03 73 1008.8
20260507063013 13 153 0.0 0.0 0.00 0.15 0.03 73 1008.5
20260507062513 13 153 0.0 0.0 0.00 0.15 0.03 74 1008.5
20260507062013 13 153 0.0 4.8 0.00 0.15 0.03 74 1008.5
20260507061512 12 153 1.6 4.8 0.00 0.15 0.03 75 1008.5
20260507061012 12 137 0.0 3.2 0.00 0.15 0.03 75 1008.4
20260507060512 12 208 0.0 6.4 0.00 0.15 0.03 75 1008.3
20260507060011 12 56 0.0 0.0 0.00 0.15 0.03 75 1008.3
20260507055511 12 56 0.0 6.4 0.00 0.15 0.03 75 1008.2
20260507055011 12 135 3.2 9.7 0.00 0.15 0.03 75 1008.2
20260507054511 12 123 0.0 6.4 0.00 0.15 0.03 75 1008.2
20260507054010 12 32 0.0 0.0 0.00 0.15 0.03 75 1008.1
20260507053510 12 32 0.0 0.0 0.00 0.15 0.03 76 1008.1
20260507053010 12 32 0.0 0.0 0.00 0.15 0.03 75 1008.0
20260507052509 12 32 0.0 0.0 0.00 0.15 0.03 76 1007.9
20260507052009 12 32 0.0 0.0 0.00 0.15 0.03 75 1007.9
20260507051509 12 32 0.0 0.0 0.00 0.15 0.03 76 1007.9
20260507051009 12 32 0.0 0.0 0.00 0.15 0.03 76 1007.7
20260507050508 12 32 0.0 1.6 0.00 0.15 0.03 76 1007.6
20260507050008 12 118 0.0 0.0 0.00 0.15 0.03 76 1007.5
20260507045508 12 118 0.0 0.0 0.00 0.15 0.03 76 1007.4
20260507045007 12 118 0.0 0.0 0.00 0.15 0.03 76 1007.4
20260507044507 12 118 0.0 0.0 0.00 0.15 0.03 76 1007.3
20260507044007 12 118 0.0 0.0 0.00 0.15 0.03 76 1007.3
20260507043507 12 118 0.0 0.0 0.00 0.15 0.03 76 1007.2
20260507043006 12 118 0.0 0.0 0.00 0.15 0.03 76 1007.1
20260507042506 12 118 0.0 0.0 0.00 0.15 0.03 77 1007.1
20260507042006 12 118 0.0 0.0 0.00 0.15 0.03 77 1007.0
20260507041505 12 118 0.0 0.0 0.00 0.15 0.03 77 1006.9
20260507041005 13 118 0.0 0.0 0.00 0.15 0.03 77 1006.9
20260507040505 12 118 0.0 0.0 0.00 0.15 0.03 77 1006.9
20260507040005 13 118 0.0 0.0 0.00 0.15 0.03 77 1006.8
20260507035504 13 118 0.0 0.0 0.00 0.15 0.03 77 1006.8
20260507035004 13 118 0.0 0.0 0.00 0.15 0.03 78 1006.8
20260507034504 13 118 0.0 0.0 0.00 0.15 0.03 77 1006.8
20260507034004 12 118 0.0 0.0 0.00 0.15 0.03 77 1006.7
20260507033503 13 118 0.0 0.0 0.00 0.15 0.03 77 1006.7
20260507033003 13 118 0.0 0.0 0.00 0.15 0.03 78 1006.7
20260507032503 13 118 0.0 0.0 0.00 0.15 0.03 78 1006.7
20260507032002 13 118 0.0 0.0 0.00 0.15 0.03 78 1006.7
20260507031502 12 118 0.0 0.0 0.00 0.15 0.03 78 1006.6
20260507031002 12 118 0.0 0.0 0.00 0.15 0.03 78 1006.6
20260507030501 12 118 0.0 0.0 0.00 0.15 0.03 78 1006.5
20260507030001 12 118 0.0 0.0 0.00 0.15 0.03 78 1006.5
20260507025501 12 118 0.0 6.4 0.00 0.15 0.03 78 1006.5
20260507025001 12 165 3.2 8.0 0.00 0.15 0.03 78 1006.5
20260507024500 13 118 0.0 6.4 0.00 0.15 0.03 78 1006.5
20260507024000 13 144 0.0 3.2 0.00 0.15 0.03 78 1006.5
20260507023500 13 274 0.0 0.0 0.00 0.15 0.03 78 1006.5
20260507023000 13 274 0.0 0.0 0.00 0.15 0.03 78 1006.4
20260507022459 13 274 0.0 0.0 0.03 0.15 0.03 78 1006.4
20260507021959 13 274 0.0 0.0 0.03 0.15 0.03 78 1006.4
20260507021459 13 274 0.0 0.0 0.03 0.15 0.03 78 1006.4
20260507020958 13 274 0.0 0.0 0.03 0.15 0.03 78 1006.3
20260507020458 13 274 0.0 0.0 0.03 0.15 0.03 78 1006.2
20260507015958 13 274 0.0 0.0 0.03 0.15 0.03 78 1006.2
20260507015458 13 274 0.0 0.0 0.03 0.15 0.03 78 1006.2
20260507014957 13 274 0.0 1.6 0.03 0.15 0.03 78 1006.1
20260507014457 13 236 0.0 0.0 0.03 0.15 0.03 78 1006.1
20260507013957 13 236 0.0 0.0 0.03 0.15 0.03 78 1006.0
20260507013456 13 236 0.0 0.0 0.03 0.15 0.03 78 1006.0
20260507012956 13 236 0.0 0.0 0.03 0.15 0.03 78 1006.0
20260507012456 13 236 0.0 0.0 0.00 0.13 0.00 78 1005.9
20260507011956 13 236 0.0 0.0 0.00 0.13 0.00 78 1005.9
20260507011455 13 236 0.0 0.0 0.00 0.13 0.00 77 1005.8
20260507010955 13 236 0.0 0.0 0.00 0.13 0.00 77 1005.8
20260507010455 13 236 0.0 0.0 0.00 0.13 0.00 77 1005.7
20260507005954 13 236 0.0 0.0 0.00 0.13 0.00 77 1005.7
20260507005454 13 236 0.0 0.0 0.00 0.13 0.00 77 1005.8
20260507004954 13 236 0.0 4.8 0.00 0.13 0.00 76 1005.7
20260507004454 13 216 0.0 3.2 0.00 0.13 0.00 76 1005.8
20260507003953 13 219 0.0 1.6 0.00 0.13 0.00 75 1005.7
20260507003453 13 278 0.0 3.2 0.00 0.13 0.00 75 1005.7
20260507002953 13 230 0.0 0.0 0.00 0.13 0.00 75 1005.7
20260507002452 13 230 0.0 0.0 0.00 0.13 0.00 75 1005.6
20260507001952 13 99 0.0 0.0 0.00 0.13 0.00 75 1005.5
20260507001452 13 99 0.0 0.0 0.00 0.13 0.00 75 1005.5
20260507000952 13 99 0.0 0.0 0.00 0.13 0.00 76 1005.6
20260507000451 13 99 0.0 0.0 0.00 0.13 0.00 76 1005.5
20260506235951 13 99 0.0 0.0 0.00 0.13 0.00 76 1005.6
20260506235451 13 99 0.0 0.0 0.00 0.13 0.00 76 1005.5
20260506234950 13 99 0.0 0.0 0.00 0.13 0.00 76 1005.5
20260506234450 13 99 0.0 6.4 0.00 0.13 0.00 76 1005.5
20260506233950 13 153 4.8 4.8 0.00 0.18 0.00 76 1005.5
20260506233450 13 113 0.0 3.2 0.00 0.18 0.00 77 1005.6
20260506232949 13 21 0.0 4.8 0.00 0.18 0.00 77 1005.5
20260506232449 13 9 3.2 3.2 0.00 0.18 0.00 77 1005.5
20260506231949 13 345 0.0 0.0 0.00 0.18 0.00 77 1005.4
20260506231449 13 345 0.0 0.0 0.00 0.18 0.00 77 1005.3
20260506230948 13 345 0.0 0.0 0.00 0.18 0.00 77 1005.3